| time (UTC) | temp F | wind direction | speed knots | gust knots | rain 1hr in | rain 24hr in | rain mn in | humidity % | barometer mb |
| 20260904045135 | 42 | 0.0 | 0.0 | 0.00 | 0.00 | 0.00 | 99 | 1000.9 | |
| 20260904044030 | 39 | 0.0 | 0.0 | 0.00 | 0.00 | 0.00 | 99 | 1001.0 | |
| 20260904043025 | 39 | 0.0 | 0.0 | 0.00 | 0.00 | 0.00 | 99 | 1001.1 | |
| 20260904042020 | 37 | 0.0 | 0.0 | 0.00 | 0.00 | 0.00 | 99 | 1000.9 | |
| 20260904041016 | 38 | 0.0 | 0.0 | 0.00 | 0.00 | 0.00 | 99 | 1001.1 | |
| 20260904040031 | 39 | 0.0 | 0.0 | 0.00 | 0.00 | 0.00 | 99 | 1001.1 | |
| 20260904035026 | 40 | 0.0 | 0.0 | 0.00 | 0.00 | 0.00 | 99 | 1001.2 | |
| 20260904034041 | 41 | 0.0 | 0.0 | 0.00 | 0.00 | 0.00 | 99 | 1001.2 | |
| 20260904033017 | 41 | 0.0 | 0.0 | 0.00 | 0.00 | 0.00 | 99 | 1001.2 | |
| 20260904032032 | 41 | 225 | 0.0 | 0.9 | 0.00 | 0.00 | 0.00 | 99 | 1001.1 |
| 20260904031027 | 41 | 0.0 | 0.0 | 0.00 | 0.00 | 0.00 | 99 | 1001.2 | |
| 20260904030023 | 41 | 237 | 0.0 | 0.9 | 0.00 | 0.00 | 0.00 | 99 | 1001.5 |
| 20260904025019 | 41 | 0.0 | 0.0 | 0.00 | 0.00 | 0.00 | 99 | 1001.5 | |
| 20260904024054 | 41 | 0.0 | 0.0 | 0.00 | 0.00 | 0.00 | 99 | 1001.5 | |
| 20260904023029 | 41 | 0.0 | 0.0 | 0.00 | 0.00 | 0.00 | 99 | 1001.6 | |
| 20260904022025 | 39 | 0.0 | 0.0 | 0.00 | 0.00 | 0.00 | 99 | 1001.6 | |
| 20260904021021 | 39 | 0.0 | 0.0 | 0.00 | 0.00 | 0.00 | 99 | 1001.7 | |
| 20260904020016 | 40 | 0.0 | 0.0 | 0.00 | 0.00 | 0.00 | 99 | 1001.7 | |
| 20260904015032 | 42 | 0.0 | 0.0 | 0.00 | 0.00 | 0.00 | 99 | 1001.7 | |
| 20260904014026 | 41 | 0.0 | 0.0 | 0.00 | 0.00 | 0.00 | 99 | 1001.9 | |
| 20260904013042 | 41 | 0.0 | 0.0 | 0.00 | 0.00 | 0.00 | 99 | 1001.9 | |
| 20260904012057 | 41 | 0.0 | 0.0 | 0.00 | 0.00 | 0.00 | 99 | 1002.0 | |
| 20260904011033 | 42 | 0.0 | 0.0 | 0.00 | 0.00 | 0.00 | 99 | 1002.0 | |
| 20260904010028 | 42 | 0.0 | 0.0 | 0.00 | 0.00 | 0.00 | 99 | 1002.2 | |
| 20260904005023 | 43 | 0.0 | 0.0 | 0.00 | 0.00 | 0.00 | 99 | 1002.2 | |
| 20260904004039 | 41 | 0.0 | 0.0 | 0.00 | 0.00 | 0.00 | 99 | 1002.5 | |
| 20260904003035 | 41 | 0.0 | 0.0 | 0.00 | 0.00 | 0.00 | 99 | 1002.3 | |
| 20260904002031 | 41 | 0.0 | 0.0 | 0.00 | 0.00 | 0.00 | 99 | 1002.4 | |
| 20260904001026 | 42 | 0.0 | 0.0 | 0.00 | 0.00 | 0.00 | 99 | 1002.5 | |
| 20260904000021 | 43 | 0.0 | 0.0 | 0.00 | 0.00 | 0.00 | 99 | 1002.3 | |
| 20260903235016 | 44 | 0.0 | 0.0 | 0.00 | 0.00 | 0.00 | 99 | 1002.6 | |
| 20260903234032 | 43 | 0.0 | 0.0 | 0.00 | 0.00 | 0.00 | 99 | 1002.5 | |
| 20260903233027 | 44 | 0.0 | 0.0 | 0.00 | 0.00 | 0.00 | 99 | 1002.7 | |
| 20260903232023 | 44 | 0.0 | 0.0 | 0.00 | 0.00 | 0.00 | 98 | 1002.8 | |
| 20260903231018 | 45 | 0.0 | 0.0 | 0.00 | 0.00 | 0.00 | 98 | 1002.7 | |
| 20260903230033 | 45 | 0.0 | 0.0 | 0.00 | 0.00 | 0.00 | 98 | 1002.7 | |
| 20260903225029 | 45 | 0.0 | 0.0 | 0.00 | 0.00 | 0.00 | 98 | 1002.8 | |
| 20260903224023 | 46 | 0.0 | 0.0 | 0.00 | 0.00 | 0.00 | 98 | 1003.0 | |
| 20260903223019 | 44 | 0.0 | 0.0 | 0.00 | 0.00 | 0.00 | 98 | 1003.0 | |
| 20260903222034 | 44 | 0.0 | 0.0 | 0.00 | 0.00 | 0.00 | 99 | 1003.1 | |
| 20260903221030 | 43 | 0.0 | 0.0 | 0.00 | 0.00 | 0.00 | 99 | 1003.1 | |
| 20260903220025 | 44 | 0.0 | 0.0 | 0.00 | 0.00 | 0.00 | 98 | 1003.1 | |
| 20260903215020 | 44 | 0.0 | 0.0 | 0.00 | 0.00 | 0.00 | 98 | 1003.2 | |
| 20260903214015 | 45 | 0.0 | 0.0 | 0.00 | 0.00 | 0.00 | 98 | 1003.1 | |
| 20260903213032 | 45 | 0.0 | 0.0 | 0.00 | 0.00 | 0.00 | 98 | 1002.9 | |
| 20260903212026 | 45 | 0.0 | 0.0 | 0.00 | 0.00 | 0.00 | 98 | 1002.9 | |
| 20260903211022 | 45 | 0.0 | 0.0 | 0.00 | 0.00 | 0.00 | 98 | 1003.0 | |
| 20260903210016 | 45 | 0.0 | 0.0 | 0.00 | 0.00 | 0.00 | 97 | 1002.9 | |
| 20260903205033 | 45 | 0.0 | 0.0 | 0.00 | 0.00 | 0.00 | 97 | 1003.1 | |
| 20260903204027 | 45 | 0.0 | 0.0 | 0.00 | 0.00 | 0.00 | 95 | 1003.0 | |
| 20260903203023 | 46 | 0.0 | 0.0 | 0.00 | 0.00 | 0.00 | 94 | 1003.0 | |
| 20260903202019 | 48 | 0.0 | 0.0 | 0.00 | 0.00 | 0.00 | 93 | 1003.1 | |
| 20260903201034 | 48 | 0.0 | 0.0 | 0.00 | 0.00 | 0.00 | 91 | 1003.2 | |
| 20260903200029 | 49 | 0.0 | 0.0 | 0.00 | 0.00 | 0.00 | 91 | 1003.2 | |
| 20260903195025 | 49 | 0.0 | 0.0 | 0.00 | 0.00 | 0.00 | 90 | 1003.4 | |
| 20260903194020 | 50 | 0.0 | 0.0 | 0.00 | 0.00 | 0.00 | 88 | 1003.5 | |
| 20260903193015 | 51 | 0.0 | 0.0 | 0.00 | 0.00 | 0.00 | 87 | 1003.5 | |
| 20260903192030 | 51 | 0.0 | 0.0 | 0.00 | 0.00 | 0.00 | 85 | 1003.3 | |
| 20260903191030 | 51 | 0.0 | 0.0 | 0.00 | 0.00 | 0.00 | 85 | 1003.3 | |
| 20260903190021 | 53 | 0.0 | 0.0 | 0.00 | 0.00 | 0.00 | 84 | 1003.3 | |
| 20260903185016 | 54 | 0.0 | 0.0 | 0.00 | 0.00 | 0.00 | 80 | 1003.3 | |
| 20260903184032 | 52 | 0.0 | 0.0 | 0.00 | 0.00 | 0.00 | 82 | 1003.2 | |
| 20260903183027 | 52 | 0.0 | 0.0 | 0.00 | 0.00 | 0.00 | 82 | 1003.2 | |
| 20260903182043 | 53 | 0.0 | 0.0 | 0.00 | 0.00 | 0.00 | 78 | 1003.4 | |
| 20260903181018 | 55 | 0.0 | 0.0 | 0.00 | 0.00 | 0.00 | 74 | 1003.4 | |
| 20260903180034 | 58 | 0.0 | 0.0 | 0.00 | 0.00 | 0.00 | 67 | 1003.5 | |
| 20260903175030 | 59 | 239 | 0.0 | 1.7 | 0.00 | 0.00 | 0.00 | 63 | 1003.6 |
| 20260903174024 | 58 | 0.0 | 0.0 | 0.00 | 0.00 | 0.00 | 70 | 1003.7 | |
| 20260903173020 | 59 | 0.0 | 0.0 | 0.00 | 0.00 | 0.00 | 71 | 1003.3 | |
| 20260903172034 | 61 | 0.0 | 0.0 | 0.00 | 0.00 | 0.00 | 65 | 1003.3 | |
| 20260903171030 | 62 | 186 | 0.0 | 0.9 | 0.00 | 0.00 | 0.00 | 61 | 1003.2 |
| 20260903170045 | 63 | 188 | 0.0 | 0.9 | 0.00 | 0.00 | 0.00 | 58 | 1003.2 |
| 20260903165021 | 64 | 214 | 0.9 | 1.7 | 0.00 | 0.00 | 0.00 | 57 | 1003.2 |
| 20260903164036 | 64 | 211 | 1.7 | 2.6 | 0.00 | 0.00 | 0.00 | 55 | 1003.3 |
| 20260903163031 | 65 | 242 | 2.6 | 6.1 | 0.00 | 0.00 | 0.00 | 53 | 1003.2 |
| 20260903162026 | 65 | 245 | 3.5 | 5.2 | 0.00 | 0.00 | 0.00 | 52 | 1003.3 |
| 20260903161022 | 64 | 239 | 3.5 | 5.2 | 0.00 | 0.00 | 0.00 | 52 | 1003.3 |
| 20260903160018 | 65 | 244 | 2.6 | 7.0 | 0.00 | 0.00 | 0.00 | 51 | 1003.4 |
| 20260903155033 | 64 | 245 | 2.6 | 6.1 | 0.00 | 0.00 | 0.00 | 52 | 1003.4 |
| 20260903154028 | 66 | 259 | 4.3 | 8.7 | 0.00 | 0.00 | 0.00 | 49 | 1003.3 |
| 20260903153023 | 66 | 258 | 3.5 | 7.0 | 0.00 | 0.00 | 0.00 | 49 | 1003.3 |
| 20260903152019 | 65 | 247 | 3.5 | 7.0 | 0.00 | 0.00 | 0.00 | 51 | 1003.4 |
| 20260903151055 | 64 | 224 | 2.6 | 3.5 | 0.00 | 0.00 | 0.00 | 52 | 1003.6 |
| 20260903150030 | 66 | 263 | 3.5 | 6.1 | 0.00 | 0.00 | 0.00 | 50 | 1003.4 |
| 20260903145024 | 66 | 248 | 2.6 | 5.2 | 0.00 | 0.00 | 0.00 | 50 | 1003.5 |
| 20260903144019 | 66 | 244 | 4.3 | 7.8 | 0.00 | 0.00 | 0.00 | 50 | 1003.5 |
| 20260903143034 | 66 | 252 | 5.2 | 9.6 | 0.00 | 0.00 | 0.00 | 49 | 1003.6 |
| 20260903142050 | 66 | 242 | 5.2 | 7.8 | 0.00 | 0.00 | 0.00 | 50 | 1003.6 |
| 20260903141025 | 66 | 254 | 6.1 | 9.6 | 0.00 | 0.00 | 0.00 | 49 | 1003.4 |
| 20260903140020 | 66 | 240 | 5.2 | 9.6 | 0.00 | 0.00 | 0.00 | 50 | 1003.6 |
| 20260903135036 | 67 | 229 | 2.6 | 7.0 | 0.00 | 0.00 | 0.00 | 50 | 1003.6 |
| 20260903134212 | 66 | 244 | 5.2 | 8.7 | 0.00 | 0.00 | 0.00 | 49 | 1003.6 |
| 20260903133026 | 66 | 246 | 5.2 | 9.6 | 0.00 | 0.00 | 0.00 | 50 | 1003.6 |
| 20260903132042 | 64 | 278 | 5.2 | 8.7 | 0.00 | 0.00 | 0.00 | 50 | 1003.7 |
| 20260903131037 | 64 | 260 | 1.7 | 3.5 | 0.00 | 0.00 | 0.00 | 53 | 1003.6 |
| 20260903130033 | 63 | 250 | 4.3 | 9.6 | 0.00 | 0.00 | 0.00 | 52 | 1003.6 |
| 20260903125028 | 64 | 243 | 3.5 | 8.7 | 0.00 | 0.00 | 0.00 | 53 | 1003.5 |
| 20260903124043 | 65 | 235 | 5.2 | 9.6 | 0.00 | 0.00 | 0.00 | 51 | 1003.5 |
| 20260903123018 | 65 | 240 | 3.5 | 7.8 | 0.00 | 0.00 | 0.00 | 52 | 1003.5 |
| 20260903122034 | 64 | 237 | 3.5 | 7.8 | 0.00 | 0.00 | 0.00 | 54 | 1003.6 |
| 20260903121029 | 64 | 238 | 3.5 | 7.0 | 0.00 | 0.00 | 0.00 | 53 | 1003.6 |
| 20260903120024 | 66 | 258 | 4.3 | 7.0 | 0.00 | 0.00 | 0.00 | 52 | 1003.4 |
| 20260903115020 | 65 | 245 | 5.2 | 9.6 | 0.00 | 0.00 | 0.00 | 53 | 1003.5 |
| 20260903114035 | 65 | 256 | 5.2 | 7.8 | 0.00 | 0.00 | 0.00 | 52 | 1003.6 |
| 20260903113031 | 64 | 274 | 7.0 | 12.2 | 0.00 | 0.00 | 0.00 | 51 | 1003.5 |
| 20260903112025 | 64 | 271 | 6.1 | 12.2 | 0.00 | 0.00 | 0.00 | 51 | 1003.6 |
| 20260903111020 | 64 | 248 | 4.3 | 7.8 | 0.00 | 0.00 | 0.00 | 53 | 1003.6 |
| 20260903110036 | 64 | 250 | 6.1 | 8.7 | 0.00 | 0.00 | 0.00 | 52 | 1003.7 |
| 20260903105031 | 64 | 272 | 5.2 | 8.7 | 0.00 | 0.00 | 0.00 | 52 | 1003.6 |
| 20260903104026 | 64 | 245 | 6.1 | 9.6 | 0.00 | 0.00 | 0.00 | 54 | 1003.6 |
| 20260903103101 | 64 | 237 | 5.2 | 8.7 | 0.00 | 0.00 | 0.00 | 54 | 1003.7 |
| 20260903102016 | 63 | 242 | 3.5 | 7.8 | 0.00 | 0.00 | 0.00 | 55 | 1003.5 |
| 20260903101031 | 63 | 226 | 3.5 | 7.0 | 0.00 | 0.00 | 0.00 | 56 | 1003.5 |
| 20260903100026 | 63 | 244 | 3.5 | 7.8 | 0.00 | 0.00 | 0.00 | 57 | 1003.6 |
| 20260903095021 | 63 | 237 | 2.6 | 5.2 | 0.00 | 0.00 | 0.00 | 57 | 1003.7 |
| 20260903094016 | 63 | 272 | 3.5 | 6.1 | 0.00 | 0.00 | 0.00 | 58 | 1003.5 |
| 20260903093034 | 62 | 268 | 3.5 | 7.0 | 0.00 | 0.00 | 0.00 | 60 | 1003.8 |
| 20260903092029 | 61 | 239 | 2.6 | 5.2 | 0.00 | 0.00 | 0.00 | 60 | 1003.8 |
| 20260903091024 | 61 | 240 | 3.5 | 6.1 | 0.00 | 0.00 | 0.00 | 61 | 1003.7 |
| 20260903090019 | 60 | 233 | 1.7 | 3.5 | 0.00 | 0.00 | 0.00 | 62 | 1003.7 |
| 20260903085034 | 61 | 271 | 3.5 | 6.1 | 0.00 | 0.00 | 0.00 | 62 | 1003.6 |
| 20260903084030 | 60 | 242 | 3.5 | 7.0 | 0.00 | 0.00 | 0.00 | 63 | 1003.7 |
| 20260903083025 | 59 | 252 | 3.5 | 6.1 | 0.00 | 0.00 | 0.00 | 64 | 1003.7 |
| 20260903082020 | 59 | 240 | 3.5 | 7.0 | 0.00 | 0.00 | 0.00 | 66 | 1003.8 |
| 20260903081056 | 59 | 238 | 4.3 | 7.8 | 0.00 | 0.00 | 0.00 | 67 | 1003.9 |
| 20260903080050 | 58 | 233 | 2.6 | 7.8 | 0.00 | 0.00 | 0.00 | 69 | 1003.7 |
| 20260903075026 | 58 | 269 | 3.5 | 7.0 | 0.00 | 0.00 | 0.00 | 70 | 1003.8 |
| 20260903074021 | 58 | 236 | 2.6 | 5.2 | 0.00 | 0.00 | 0.00 | 73 | 1003.9 |
| 20260903073018 | 57 | 263 | 3.5 | 5.2 | 0.00 | 0.00 | 0.00 | 75 | 1003.9 |
| 20260903072033 | 56 | 237 | 3.5 | 7.0 | 0.00 | 0.00 | 0.00 | 77 | 1003.9 |
| 20260903071028 | 55 | 237 | 4.3 | 7.0 | 0.00 | 0.00 | 0.00 | 79 | 1003.9 |
| 20260903070023 | 53 | 246 | 4.3 | 7.8 | 0.00 | 0.00 | 0.00 | 81 | 1003.8 |
| 20260903065039 | 53 | 230 | 3.5 | 7.0 | 0.00 | 0.00 | 0.00 | 83 | 1003.9 |
| 20260903064034 | 53 | 239 | 4.3 | 7.8 | 0.00 | 0.00 | 0.00 | 83 | 1003.9 |
| 20260903063110 | 53 | 227 | 2.6 | 5.2 | 0.00 | 0.00 | 0.00 | 85 | 1004.0 |
| 20260903062026 | 53 | 237 | 4.3 | 7.8 | 0.00 | 0.00 | 0.00 | 84 | 1004.0 |
| 20260903061020 | 53 | 238 | 3.5 | 8.7 | 0.00 | 0.00 | 0.00 | 84 | 1004.1 |
| 20260903060034 | 53 | 242 | 4.3 | 8.7 | 0.00 | 0.00 | 0.00 | 85 | 1004.0 |
| 20260903055030 | 53 | 226 | 3.5 | 7.0 | 0.00 | 0.00 | 0.00 | 86 | 1004.0 |
| 20260903054024 | 53 | 243 | 4.3 | 7.0 | 0.00 | 0.00 | 0.00 | 86 | 1004.0 |
| 20260903053019 | 53 | 221 | 2.6 | 5.2 | 0.00 | 0.00 | 0.00 | 88 | 1004.0 |
| 20260903052055 | 52 | 196 | 1.7 | 5.2 | 0.00 | 0.00 | 0.00 | 87 | 1004.0 |
| 20260903051030 | 52 | 190 | 1.7 | 3.5 | 0.00 | 0.00 | 0.00 | 88 | 1004.1 |
| 20260903050026 | 51 | 203 | 1.7 | 5.2 | 0.00 | 0.00 | 0.00 | 89 | 1004.1 |